STARLINK-4548, 53431

Orbit data source: Space-Track

STARLINK-4548, 53431 is a payload satellite owned by SpaceX/Seattle (US) in LEO that was launched on Wed, 10 Aug 2022 UTC via an FALCON 9 launch vehicle from the Air Force Eastern Test Range (AFETR). Payload-class satellites include a variety of spacecraft equipped with specific instruments for various scientific and technological missions. These include communications satellites like Starlink; space stations such as the ISS; scientific satellites like the Hubble; Earth observation satellites from companies like Planet Labs, Umbra, and HawkEye 360; GPS; miniature CubeSats for education and research; and military/defense satellites.

Loading next visibility...
Identifier
53431, 2022-097AV
Orbit
LEO
Country
Flag of USUS
Related business
Manufacturer
SpaceX/Seattle
Mission
Operational Commercial Communications
Bus & Motor
STARLINK, Unknown motor
Mass
297 kg wet, ~275 kg dry
Launch date (UTC)
2022-08-10 (4 years ago)
Launch vehicle
FALCON 9
Launch site
Air Force Eastern Test Range (AFETR)
Object type
Payload
Rocket body
Debris
Shape & HBR
Box + 1 Pan, 10.1 m
Radar Cross Section
13.562 m², Large (>1 m²)

Expand to show TLE details & history
Last TLE update: 19 hours ago

TLE from 19 hours ago
0 STARLINK-4548
1 53431U 22097AV  26144.23153948  .00000186  00000-0  29770-4 0  9992
2 53431  53.2165 124.6113 0001134  79.3723 280.7396 15.08837227210199
Epoch: 2026-05-24T05:33Z
TLE epoch observation values (Epoch: 2026-05-24T05:33:25.011Z)
Latitude
-0.00007°
Longitude
159.42039°
Altitude
540.503 km
Speed
7.593 km/s
True Right ascension
08h 18m 26s
True Declination
0° 00' 00"
Sunlit
Object was in daylight at epoch
Visualization orbit readout
Latitude
Unknown
Longitude
Unknown
Altitude
Unknown
Speed
Unknown
Apparent Right ascension
Unknown
Apparent Declination
Unknown
Sunlit
N/A
Visualization observer readout
Local Sidereal Time
09:24:20
Azimuth
Unknown
Elevation
Unknown
Doppler factor
Unknown
Orbital elements
Apogee altitude
540.781 km
Perigee altitude
539.212 km
Semi-major axis
6,918.134 km
Eccentricity
0.00011
Inclination
53.2165°
RAAN
124.6113°
Arg. of periapsis
79.3723°
True anomaly
280.72683°
Mean anomaly
280.7396°
Eccentric anomaly
280.73322°
Mean motion
3.7719 °/min
Orbital period
95.44 mins
BSTAR
0.00002977
Loading maneuver chart data...
Computing Atmospheric mass density...
Loading historical data...
Loading historical data...
Loading historical data...
Loading historical data...
Loading historical data...
Loading historical data...
Loading historical data...

Documentation

Showing up to 5 results
|